Flag for France Weather past 2 weeks in Bastia, Corsica, France

Now
70 °F

Clear.


Feels Like: 70 °F
Forecast: 62 / 76 °F
Wind: 3 mph from Southwest

Location: Bastia Airport

Current Time: Jul 29, 2014 at 3:15:03 AM

Latest Report: Jul 29, 2014 at 2:30 AM


Visibility: N/A

Pressure: 29.80 "Hg

Humidity: 78%

Dew point: 63 °F

Location of BastiaLocation

Historic Weather in Bastia — Graph

°F

Bastia temperature yesterday

Maximum temperature yesterday: 84 °F (at 12:00 PM)
Minimum temperature yesterday: 68 °F (at 12:00 AM)
Average temperature yesterday: 77 °F

Past Weeks' High & Low Weather Summary

 TemperatureHumidityPressure
High88 °F (Jul 16, 2:30 PM)94% (Jul 14, 11:00 PM)30.09 "Hg (Jul 14, 11:00 PM)
Low61 °F (Jul 14, 3:30 AM)31% (Jul 21, 11:30 AM)29.71 "Hg (Jul 22, 3:30 AM)
Average75 °F68%29.92 "Hg
* Reported Jul 14 2:00 AM — Jul 29 2:00 AM, Bastia, Weather by CustomWeather, © 2014

Note: Actual official high and low records may vary slightly from our data, if they occured in-between our weather recording intervals... More about our weather records

Advertising

Bastia weather history for previous 24 hours

 ConditionsComfort  
Time TempWeatherWind HumidityBarometerVisibility
2:00 AM
Jul 29
70 °FClear.2 mph78%29.80 "HgN/A
1:30 AM70 °FClear.3 mph73%29.80 "HgN/A
1:00 AM70 °FClear.3 mph78%29.80 "HgN/A
12:30 AM70 °FPartly cloudy.3 mph78%29.83 "HgN/A
12:00 AM72 °FPartly cloudy.3 mph78%29.83 "HgN/A
11:30 PM
Jul 28
73 °FPartly cloudy.5 mph74%29.83 "HgN/A
11:00 PM73 °FPassing clouds.3 mph74%29.83 "HgN/A
10:00 PM73 °FPassing clouds.3 mph83%29.83 "HgN/A
9:30 PM75 °FPartly sunny.5 mph78%29.83 "HgN/A
9:00 PM75 °FMore clouds than sun.No wind78%29.83 "HgN/A
8:30 PM75 °FBroken clouds.1 mph78%29.83 "HgN/A
8:00 PM77 °FBroken clouds.3 mph74%29.83 "HgN/A
7:30 PM79 °FBroken clouds.6 mph65%29.83 "HgN/A
7:00 PM79 °FBroken clouds.3 mph61%29.83 "HgN/A
6:30 PM82 °FBroken clouds.5 mph55%29.83 "HgN/A
6:00 PM81 °FPartly sunny.6 mph58%29.83 "HgN/A
5:30 PM82 °FPartly sunny.7 mph58%29.86 "HgN/A
5:00 PM82 °FScattered clouds.6 mph55%29.86 "HgN/A
4:30 PM82 °FScattered clouds.7 mph55%29.86 "HgN/A
4:00 PM82 °FScattered clouds.7 mph58%29.86 "HgN/A
3:30 PM82 °FScattered clouds.9 mph58%29.86 "HgN/A
3:00 PM82 °FPassing clouds.9 mph58%29.86 "HgN/A
2:30 PM82 °FPassing clouds.9 mph55%29.86 "HgN/A
2:00 PM82 °FPassing clouds.10 mph58%29.86 "HgN/A
1:30 PM84 °FPassing clouds.12 mph55%29.86 "HgN/A
1:00 PM82 °FPassing clouds.10 mph51%29.86 "HgN/A
12:30 PM84 °FPassing clouds.12 mph48%29.86 "HgN/A
12:00 PM84 °FPassing clouds.10 mph45%29.86 "HgN/A
11:30 AM82 °FPassing clouds.10 mph51%29.89 "HgN/A
11:00 AM82 °FPassing clouds.8 mph55%29.89 "HgN/A
10:30 AM81 °FPassing clouds.7 mph54%29.89 "HgN/A
10:00 AM81 °FPassing clouds.6 mph48%29.89 "HgN/A
9:30 AM81 °FSunny.3 mph45%29.89 "Hg10 mi
9:00 AM79 °FSunny.No wind51%29.89 "Hg10 mi
8:30 AM77 °FSunny.1 mph54%29.89 "Hg10 mi
8:00 AM75 °FSunny.3 mph57%29.89 "Hg10 mi
7:30 AM72 °FSunny.3 mph61%29.89 "Hg10 mi
7:00 AM70 °FClear.No wind60%29.89 "Hg10 mi
6:30 AM70 °FClear.8 mph60%29.86 "Hg10 mi
6:00 AM70 °FClear.9 mph60%29.86 "Hg10 mi
5:30 AM70 °FClear.7 mph60%29.86 "Hg10 mi
4:00 AM70 °FClear.8 mph60%29.89 "Hg10 mi
3:30 AM72 °FClear.9 mph57%29.89 "Hg10 mi
3:00 AM70 °FClear.7 mph60%29.89 "HgN/A
Weather by CustomWeather, © 2014

See weather overviewHow to use our weather pages